RH
8 9 12 15 18 17 14 13 12 12 15 34 52 48 27 21 5 3 2 2 27 92 88 100 93 87 40 35 34 58 74 64 74 52 44 28 25 35 54 36 44 62 49 60 51 42 55
8 8 12 16 18 16 15 12 10 26 44 100 100 100 92 54 21 8 4 2 2 90 88 97 98 96 54 34 45 50 68 75 82 90 80 60 26 33 47 54 75 68 70 69 63 62 49
7 9 13 18 18 15 13 10 16 57 99 96 95 96 96 83 66 35 13 4 2 9 77 99 100 98 72 39 48 56 81 85 76 81 83 89 61 69 78 73 85 82 80 76 50 32 37
7 11 16 19 16 14 11 14 49 99 94 94 95 95 89 76 67 62 54 28 4 7 98 99 96 99 84 47 48 46 98 91 79 84 93 100 82 79 89 93 80 82 82 74 32 41 36
8 13 19 18 15 20 37 96 93 92 94 92 94 89 76 74 68 57 65 52 13 18 98 99 98 100 89 49 38 55 79 88 90 91 96 99 96 98 82 88 81 76 78 63 60 54 61
11 17 19 17 14 29 86 93 86 88 88 82 79 77 79 71 68 71 84 88 38 20 98 98 97 99 84 56 37 55 82 86 93 98 99 98 100 90 100 95 87 70 76 73 72 65 70
13 20 19 14 9 20 61 86 80 79 81 82 82 83 81 79 86 78 66 73 59 32 96 97 97 98 72 51 39 54 85 79 85 98 97 100 100 98 89 89 88 75 76 79 69 69 69
16 20 17 11 14 50 82 84 77 79 74 73 77 78 80 85 92 80 76 72 89 72 96 98 98 99 84 49 42 58 89 88 94 87 100 99 99 99 93 97 90 80 80 77 66 65 65
20 20 15 8 20 88 71 86 80 76 61 49 55 82 91 95 86 80 72 73 94 98 98 96 98 99 89 54 47 53 76 93 88 88 96 90 90 90 97 95 88 82 80 74 74 56 54
21 20 12 7 46 75 46 53 71 50 41 43 53 78 77 84 84 90 73 67 86 96 98 88 98 99 94 73 62 68 81 89 100 97 92 90 86 87 92 87 87 83 81 79 79 74 68
21 18 9 7 59 46 24 33 48 58 36 42 50 62 86 96 96 91 81 80 74 96 97 95 98 97 92 78 61 100 100 97 96 97 98 85 92 88 92 79 93 93 87 81 79 78 78
22 16 7 8 49 42 21 23 30 33 36 43 48 58 86 99 95 80 83 95 83 97 97 98 99 98 97 94 84 95 100 99 99 99 100 98 90 93 91 91 91 94 87 75 70 79 90
22 15 6 3 33 19 17 20 25 28 32 32 38 81 91 93 89 71 83 78 91 96 98 98 99 93 86 99 95 100 98 99 98 98 100 97 94 88 83 87 87 93 86 90 88 91 90
22 14 5 2 10 16 16 17 17 20 27 37 86 87 71 71 67 67 70 65 95 97 98 99 97 90 92 95 100 98 98 99 92 86 87 88 92 83 80 82 74 86 82 75 93 96 82
22 12 4 2 14 19 15 15 33 89 92 85 80 90 74 87 81 82 93 92 96 97 97 98 98 94 94 90 92 99 100 98 91 82 74 84 82 89 91 83 90 94 90 86 91 79 86
22 11 4 3 19 44 45 78 97 96 90 83 79 95 81 90 84 99 92 96 98 98 94 92 95 92 90 92 87 93 92 87 95 87 87 84 80 92 92 86 91 91 76 93 95 99 93
22 12 5 3 21 49 69 100 96 74 63 62 74 79 99 81 77 98 95 97 99 99 87 87 84 96 88 92 86 92 84 88 87 85 94 86 85 92 93 88 75 93 94 89 85 86 98
23 13 7 4 25 50 69 82 77 66 76 77 59 60 85 100 89 93 93 97 98 98 99 91 80 80 73 86 88 80 77 88 93 84 92 91 88 84 80 71 80 84 78 90 77 73 82
24 15 9 3 31 50 60 71 77 61 62 70 53 39 51 61 67 96 97 98 98 98 97 99 95 85 78 82 79 81 91 94 91 97 87 91 93 90 90 87 89 91 87 84 84 85 88
24 18 11 2 24 47 54 54 57 43 59 57 31 46 64 83 96 92 92 96 96 87 88 82 82 85 84 90 84 90 83 92 99 99 92 90 90 76 79 92 88 90 85 85 88 98 90
25 21 13 7 5 42 45 53 48 40 47 49 48 54 71 87 91 82 82 78 81 86 88 91 92 85 86 91 86 89 96 92 89 98 99 96 91 88 80 67 73 72 71 73 88 85 99
25 24 16 12 2 24 43 51 53 45 37 40 46 55 70 82 85 86 84 71 68 66 65 86 93 93 92 87 81 88 95 82 77 79 92 98 90 85 79 82 78 78 80 86 91 96 98
25 26 20 14 10 4 38 46 53 57 61 38 33 47 56 67 80 80 86 77 72 70 66 62 81 86 93 89 95 94 95 90 94 84 83 94 92 84 80 76 83 86 81 94 94 98 99
24 26 24 18 14 8 6 37 47 48 50 56 42 37 55 64 79 95 75 79 75 70 66 61 70 66 76 83 87 86 91 98 97 91 89 86 91 93 86 83 86 86 77 85 86 89 95
23 27 27 22 18 14 8 3 13 36 46 51 54 51 51 68 85 98 91 78 76 68 66 78 76 79 87 88 88 94 90 95 90 100 90 86 96 96 99 98 78 74 79 78 86 78 90
23 26 28 26 22 17 14 8 1 3 26 52 62 63 62 63 88 96 96 92 82 71 75 79 74 83 85 84 75 85 78 86 95 94 99 98 100 100 98 98 92 78 69 80 82 80 82
27 24 28 29 26 21 17 14 9 2 2 22 61 68 69 68 87 98 100 100 99 89 72 74 79 79 83 83 86 82 73 84 91 95 96 99 100 99 99 97 77 65 80 81 79 70 75
43 24 27 29 29 26 21 18 15 12 4 2 13 80 88 84 90 98 99 98 100 94 86 85 89 90 93 90 87 80 79 90 89 92 92 90 94 90 100 96 84 80 83 89 81 69 70
59 26 26 29 30 30 26 21 18 16 13 5 3 6 72 92 80 100 100 100 83 92 90 99 92 97 89 96 87 83 85 89 90 81 94 96 86 94 78 72 79 84 86 86 79 66 65
Wind_Speed
30 34 37 40 41 41 41 42 45 46 45 43 40 35 38 32 33 34 32 31 31 30 28 22 25 21 22 24 21 14 11 13 14 17 15 18 24 23 24 23 25 25 25 20 19 27 30
34 35 39 43 44 44 45 46 47 44 41 29 31 33 29 34 30 33 36 32 32 35 29 21 26 23 22 25 19 22 15 13 18 17 16 16 22 22 16 13 20 15 18 18 27 27 34
36 38 41 45 45 47 46 49 46 40 35 34 35 36 34 32 29 30 34 34 31 36 32 24 22 22 24 19 22 22 16 14 13 22 20 15 18 22 20 17 19 22 19 21 27 27 32
39 41 44 46 49 50 49 49 38 31 32 33 33 31 25 23 20 29 27 29 29 34 28 25 30 25 25 23 26 20 21 16 13 21 22 19 17 23 22 19 15 20 22 26 19 17 20
41 42 46 48 51 51 48 37 35 34 33 32 30 28 24 22 20 24 21 23 25 34 31 28 27 28 22 24 26 21 17 18 13 20 20 25 20 25 20 18 15 15 13 14 8 11 13
41 45 48 51 51 49 37 34 35 35 33 30 27 24 22 22 20 18 17 13 17 35 34 26 29 21 23 26 24 23 22 22 19 15 18 24 22 22 24 17 15 15 16 11 12 7 14
43 46 50 52 52 47 36 33 34 32 28 25 22 21 18 18 16 13 14 13 11 34 31 42 33 29 9 13 23 23 23 21 25 22 21 16 25 26 19 16 17 13 9 14 11 9 14
44 47 51 52 51 41 33 33 32 30 25 22 22 19 19 19 17 14 13 11 17 26 26 29 12 26 16 17 17 24 24 26 25 28 25 19 14 14 15 10 10 13 18 19 18 17 19
46 49 52 52 48 34 32 31 32 28 24 23 17 15 20 23 9 11 7 9 26 16 12 29 23 20 24 17 22 27 26 25 21 24 26 24 9 15 17 16 18 19 20 21 19 22 22
46 49 53 52 41 31 30 27 25 22 14 12 13 18 23 31 25 5 3 6 31 14 12 27 28 20 20 19 18 21 24 22 23 23 22 16 19 8 15 21 19 17 16 14 14 14 9
46 50 53 52 37 29 25 21 18 15 11 10 13 19 27 26 23 5 6 4 29 9 4 20 31 20 24 23 22 28 27 21 24 25 22 11 16 14 8 11 15 11 11 13 16 17 22
46 49 53 50 35 26 22 18 18 16 16 17 19 24 27 14 8 7 12 4 15 5 3 18 28 29 29 17 20 31 26 22 19 15 18 12 10 14 16 12 15 14 15 12 9 8 6
46 49 53 48 34 26 21 20 19 19 19 22 26 26 11 9 5 15 15 10 14 6 10 22 32 33 28 24 21 36 29 25 17 18 16 17 10 10 10 13 16 19 8 1 2 2 7
44 48 51 46 34 28 24 22 22 21 22 24 20 13 10 11 16 17 14 13 3 4 11 26 33 33 26 21 26 25 26 26 18 12 18 13 5 19 17 22 14 18 12 5 5 3 4
43 47 50 40 32 30 26 24 24 26 23 17 11 10 10 9 11 21 15 5 2 7 27 27 32 30 22 19 16 21 22 21 21 17 7 10 10 3 11 11 16 13 15 8 5 9 4
41 45 49 36 30 30 27 28 29 25 20 14 9 14 13 9 10 13 10 1 10 16 23 29 19 17 22 22 15 19 19 15 22 21 10 8 4 3 6 6 20 11 7 9 7 2 5
39 43 47 34 30 27 28 30 28 25 18 15 10 16 15 13 16 9 4 6 18 28 22 10 13 12 20 22 11 17 17 0 14 15 17 10 6 5 12 14 20 23 14 8 6 6 3
37 40 45 32 28 24 26 32 29 32 21 12 10 16 16 14 10 6 8 10 16 19 14 15 6 15 21 16 16 13 7 3 9 10 26 12 7 10 17 7 5 16 22 19 5 5 12
34 36 41 33 26 23 24 30 28 25 17 15 19 23 18 10 8 7 8 15 21 18 9 9 9 5 19 20 11 11 11 6 15 12 22 18 7 4 3 4 15 15 16 18 20 25 30
30 33 36 36 24 22 23 29 27 20 16 18 23 17 15 11 15 17 13 21 19 16 18 18 26 27 24 10 8 13 13 11 17 15 14 10 10 9 5 4 6 11 17 22 23 21 27
27 30 32 36 23 21 21 25 20 15 15 13 17 18 13 15 22 23 23 23 17 19 19 18 14 11 15 13 13 12 9 12 17 21 13 15 11 14 16 16 19 22 23 23 30 36 31
23 26 27 30 28 17 16 19 16 15 10 12 14 17 15 19 19 17 15 14 14 12 12 16 14 13 6 12 5 11 7 10 9 19 19 17 9 10 14 1 3 15 15 16 20 25 32
19 23 24 25 28 18 13 11 13 13 13 6 12 13 11 13 13 10 9 7 10 9 7 5 10 11 10 8 9 8 8 7 5 6 12 11 4 7 5 10 16 9 5 8 13 13 17
16 18 21 21 21 23 13 8 7 9 9 4 4 7 12 12 9 3 5 3 4 4 4 4 6 6 6 5 7 3 8 9 8 7 8 8 7 6 7 10 1 4 9 11 19 9 10
14 14 16 18 19 19 19 11 7 6 7 6 3 7 11 14 13 5 5 7 3 3 1 4 6 5 5 8 6 5 5 4 5 10 9 10 9 5 3 6 15 2 6 15 18 10 11
16 12 14 15 17 18 17 18 12 9 8 7 5 7 10 15 14 8 8 7 3 2 7 5 4 5 5 6 6 5 4 3 4 3 6 8 12 11 1 3 3 2 11 18 16 4 22
18 14 13 15 16 19 20 19 17 13 10 11 10 10 12 13 14 12 11 12 7 5 6 4 3 6 7 8 7 4 4 5 3 4 8 9 11 18 14 7 11 3 10 16 6 9 17
19 16 13 13 15 17 19 21 22 20 14 12 15 15 14 15 18 21 17 14 19 11 6 5 5 5 6 7 6 5 5 6 6 8 5 7 8 8 11 7 9 2 12 13 17 15 16
19 16 16 15 14 15 16 18 22 24 24 19 15 20 22 20 15 22 28 19 17 15 11 11 6 4 5 7 8 5 6 5 6 3 5 11 12 5 9 5 4 15 14 15 17 13 14
Wind_Direction
338 336 335 336 334 329 326 323 321 316 314 310 306 295 285 277 266 264 257 247 231 226 229 237 236 232 238 235 225 221 192 198 213 216 213 213 210 208 213 220 215 227 233 227 224 219 229
337 337 336 334 332 330 326 321 316 312 310 305 301 304 302 297 281 264 261 252 234 223 226 233 243 230 232 237 223 222 195 174 205 207 211 207 213 211 221 194 206 231 235 234 229 235 231
336 338 336 333 330 327 325 320 315 311 307 300 298 296 300 297 277 262 253 251 235 223 217 219 236 220 225 220 226 213 215 215 200 204 202 201 205 189 192 190 200 219 228 237 242 246 246
336 337 337 332 330 327 327 322 323 315 311 308 307 308 311 299 288 287 288 263 231 218 210 210 230 221 226 214 223 213 195 212 208 197 192 199 209 196 205 200 208 225 235 253 265 256 257
335 338 337 333 332 334 333 328 324 318 314 313 315 315 313 302 292 283 292 281 235 205 201 201 211 226 220 214 218 208 204 203 204 198 193 195 199 200 202 213 228 238 249 254 265 238 253
337 339 338 334 338 335 331 325 324 323 324 322 320 318 315 308 300 287 284 271 245 200 197 205 221 212 222 214 207 203 200 195 192 196 192 202 212 214 200 207 205 235 239 260 265 312 244
338 341 336 339 339 338 337 331 334 333 332 330 328 327 323 320 320 304 272 284 240 197 188 198 194 194 202 194 198 194 199 193 201 195 190 177 192 221 215 223 239 198 229 273 233 197 251
341 342 338 342 342 342 346 340 340 338 336 334 334 333 331 322 314 305 290 231 180 196 212 202 164 193 199 193 186 184 194 195 199 198 206 202 211 181 201 195 248 240 252 261 240 230 262
343 341 341 346 343 343 344 338 340 339 334 331 336 345 336 339 332 312 284 220 181 157 171 196 183 166 191 183 188 188 190 195 199 194 203 214 201 227 210 201 226 231 245 252 264 263 258
343 342 345 347 346 345 346 348 348 347 354 345 339 339 335 334 325 347 240 210 190 150 141 201 172 171 173 178 167 185 187 192 182 189 199 209 217 216 213 218 224 246 248 249 260 277 276
343 345 348 348 348 349 353 357 355 350 350 334 326 334 332 326 302 256 196 211 183 140 151 176 168 177 171 167 177 172 170 187 189 187 190 192 209 217 226 228 217 235 239 245 261 274 282
344 346 350 351 348 349 348 347 343 341 337 333 323 317 321 317 295 172 146 146 208 225 194 156 158 160 159 169 171 162 173 170 171 180 191 177 189 214 229 231 209 229 247 265 281 283 271
345 349 351 355 353 350 343 341 338 332 327 325 328 340 346 342 162 143 135 145 162 231 116 142 149 154 158 163 167 165 176 173 174 164 185 209 200 217 224 214 211 224 223 2 318 248 237
347 351 352 358 0 354 345 342 340 338 334 330 340 6 37 92 134 127 130 162 217 80 111 146 154 154 155 164 162 169 174 179 173 170 179 190 193 233 231 226 231 207 211 204 226 225 278
347 352 356 1 6 359 357 356 353 351 342 356 13 64 84 81 122 142 150 150 242 99 132 143 144 155 161 169 166 178 184 190 184 161 138 185 212 241 234 214 197 190 214 214 264 283 282
347 354 360 5 7 4 9 5 1 356 349 25 79 91 81 90 122 137 141 39 26 113 142 146 141 163 175 175 172 182 185 209 202 194 144 153 144 217 198 164 190 212 214 203 197 254 262
348 355 3 8 10 11 15 12 11 22 33 71 75 93 93 99 122 133 115 64 99 115 121 118 148 144 173 163 179 175 184 46 200 209 176 177 189 189 204 215 208 211 211 206 211 236 217
348 356 6 11 13 14 25 25 32 29 50 64 66 84 100 93 106 111 199 63 131 71 92 113 145 176 181 148 152 158 192 77 186 173 177 181 209 218 233 233 239 235 234 220 209 237 235
346 356 7 13 13 14 30 33 31 35 59 64 77 92 92 89 107 80 83 85 86 82 95 96 134 147 166 146 145 170 175 170 163 176 180 199 207 202 184 195 213 232 240 239 252 260 259
345 354 9 13 14 16 35 38 44 49 59 64 104 106 106 77 70 102 85 84 87 86 92 87 103 109 135 132 119 151 159 170 173 178 188 199 227 238 204 142 140 222 243 248 249 244 258
343 352 7 12 19 17 32 50 60 70 71 72 99 99 90 80 73 88 94 96 88 91 99 111 124 99 102 112 122 145 168 182 184 187 183 209 234 247 263 265 266 269 269 261 251 259 260
340 346 4 10 18 18 27 54 56 79 88 82 96 110 98 98 103 106 103 96 99 97 105 118 124 143 152 140 147 167 162 165 172 196 205 223 259 294 313 141 291 287 284 280 273 274 275
336 342 357 8 15 19 16 43 43 31 52 111 120 127 128 120 121 122 122 111 102 99 93 133 156 169 140 140 148 169 188 191 194 190 208 217 250 302 286 323 308 284 346 326 327 300 293
329 337 346 1 7 19 7 12 31 13 15 14 212 166 162 164 146 123 175 172 134 95 64 157 181 180 190 184 165 178 194 203 229 227 220 242 263 277 290 338 281 192 327 337 336 317 316
313 326 336 346 356 7 16 357 330 333 333 342 287 243 195 179 175 161 207 207 190 268 318 130 176 171 161 151 143 129 153 204 228 241 240 238 251 264 273 289 291 167 349 344 332 337 343
298 312 322 332 340 353 3 8 355 317 305 307 293 262 248 205 196 195 194 217 235 234 170 158 139 164 178 165 169 165 178 193 184 205 215 229 256 254 238 295 276 250 331 342 336 356 351
293 301 315 322 330 340 347 350 356 351 312 286 274 255 254 231 208 197 190 195 214 203 210 228 214 211 205 195 173 172 191 194 208 219 197 192 234 238 244 254 276 292 345 337 325 323 335
290 294 303 310 322 329 336 337 341 344 336 307 273 262 264 251 210 212 199 197 208 216 230 223 209 198 184 192 196 194 212 203 228 232 227 214 203 211 216 219 257 335 337 332 319 312 316
287 288 293 301 310 316 324 328 327 328 326 315 297 267 252 246 217 218 205 205 205 204 202 223 206 190 177 190 204 211 213 214 238 251 220 231 230 239 224 245 284 317 300 317 324 316 320